Year,Month,Day,Hour,Minute,Value (Times are PST for temperature in C)
2012,05,27,00,00,12.10
2012,05,27,00,01,12.10
2012,05,27,00,02,12.10
2012,05,27,00,03,12.10
2012,05,27,00,04,12.10
2012,05,27,00,05,12.10
2012,05,27,00,06,12.10
2012,05,27,00,07,12.10
2012,05,27,00,08,12.10
2012,05,27,00,09,12.00
2012,05,27,00,10,12.00
2012,05,27,00,11,12.00
2012,05,27,00,12,11.90
2012,05,27,00,13,11.90
2012,05,27,00,14,11.90
2012,05,27,00,15,11.90
2012,05,27,00,16,11.90
2012,05,27,00,17,11.90
2012,05,27,00,18,11.80
2012,05,27,00,19,11.80
2012,05,27,00,20,11.80
2012,05,27,00,21,11.80
2012,05,27,00,22,11.80
2012,05,27,00,23,11.80
2012,05,27,00,24,11.70
2012,05,27,00,25,11.70
2012,05,27,00,26,11.70
2012,05,27,00,27,11.70
2012,05,27,00,28,11.70
2012,05,27,00,29,11.70
2012,05,27,00,30,11.70
2012,05,27,00,31,11.70
2012,05,27,00,32,11.60
2012,05,27,00,33,11.60
2012,05,27,00,34,11.60
2012,05,27,00,35,11.60
2012,05,27,00,36,11.60
2012,05,27,00,37,11.60
2012,05,27,00,38,11.50
2012,05,27,00,39,11.50
2012,05,27,00,40,11.50
2012,05,27,00,41,11.50
2012,05,27,00,42,11.50
2012,05,27,00,43,11.40
2012,05,27,00,44,11.50
2012,05,27,00,45,11.50
2012,05,27,00,46,11.50
2012,05,27,00,47,11.50
2012,05,27,00,48,11.50
2012,05,27,00,49,11.60
2012,05,27,00,50,11.60
2012,05,27,00,51,11.60
2012,05,27,00,52,11.60
2012,05,27,00,54,11.60
2012,05,27,00,55,11.50
2012,05,27,00,56,11.50
2012,05,27,00,57,11.50
2012,05,27,00,58,11.50
2012,05,27,00,59,11.50
2012,05,27,01,00,11.50
2012,05,27,01,01,11.50
2012,05,27,01,02,11.50
2012,05,27,01,03,11.50
2012,05,27,01,04,11.50
2012,05,27,01,05,11.40
2012,05,27,01,06,11.40
2012,05,27,01,07,11.40
2012,05,27,01,08,11.40
2012,05,27,01,09,11.40
2012,05,27,01,10,11.40
2012,05,27,01,11,11.40
2012,05,27,01,12,11.40
2012,05,27,01,13,11.40
2012,05,27,01,14,11.40
2012,05,27,01,15,11.30
2012,05,27,01,16,11.30
2012,05,27,01,17,11.30
2012,05,27,01,18,11.20
2012,05,27,01,19,11.20
2012,05,27,01,20,11.20
2012,05,27,01,21,11.10
2012,05,27,01,22,11.10
2012,05,27,01,23,11.10
2012,05,27,01,24,11.10
2012,05,27,01,25,11.00
2012,05,27,01,26,11.00
2012,05,27,01,27,11.00
2012,05,27,01,28,11.00
2012,05,27,01,29,11.00
2012,05,27,01,30,11.00
2012,05,27,01,31,11.00
2012,05,27,01,32,11.00
2012,05,27,01,33,11.00
2012,05,27,01,34,11.10
2012,05,27,01,35,11.10
2012,05,27,01,36,11.10
2012,05,27,01,37,11.10
2012,05,27,01,38,11.10
2012,05,27,01,39,11.10
2012,05,27,01,40,11.10
2012,05,27,01,41,11.10
2012,05,27,01,42,11.10
2012,05,27,01,43,11.10
2012,05,27,01,44,11.10
2012,05,27,01,45,11.10
2012,05,27,01,46,11.10
2012,05,27,01,47,11.10
2012,05,27,01,48,11.10
2012,05,27,01,49,11.10
2012,05,27,01,50,11.10
2012,05,27,01,51,11.10
2012,05,27,01,52,11.10
2012,05,27,01,53,11.00
2012,05,27,01,54,11.00
2012,05,27,01,55,10.90
2012,05,27,01,56,10.90
2012,05,27,01,57,10.90
2012,05,27,01,58,10.90
2012,05,27,01,59,10.90
2012,05,27,02,00,10.90
2012,05,27,02,01,10.90
2012,05,27,02,02,10.90
2012,05,27,02,03,10.90
2012,05,27,02,04,10.90
2012,05,27,02,05,10.90
2012,05,27,02,06,10.90
2012,05,27,02,07,11.00
2012,05,27,02,08,11.00
2012,05,27,02,09,11.00
2012,05,27,02,10,11.00
2012,05,27,02,11,11.00
2012,05,27,02,12,11.00
2012,05,27,02,13,11.00
2012,05,27,02,14,11.00
2012,05,27,02,15,11.00
2012,05,27,02,16,10.90
2012,05,27,02,17,10.90
2012,05,27,02,18,10.90
2012,05,27,02,19,10.90
2012,05,27,02,20,10.90
2012,05,27,02,21,10.90
2012,05,27,02,22,10.80
2012,05,27,02,23,10.80
2012,05,27,02,24,10.80
2012,05,27,02,25,10.70
2012,05,27,02,26,10.70
2012,05,27,02,27,10.70
2012,05,27,02,28,10.60
2012,05,27,02,29,10.60
2012,05,27,02,30,10.60
2012,05,27,02,31,10.50
2012,05,27,02,32,10.40
2012,05,27,02,33,10.40
2012,05,27,02,34,10.40
2012,05,27,02,35,10.40
2012,05,27,02,36,10.40
2012,05,27,02,37,10.30
2012,05,27,02,38,10.30
2012,05,27,02,39,10.40
2012,05,27,02,40,10.40
2012,05,27,02,41,10.40
2012,05,27,02,42,10.50
2012,05,27,02,43,10.50
2012,05,27,02,44,10.60
2012,05,27,02,45,10.60
2012,05,27,02,46,10.70
2012,05,27,02,47,10.70
2012,05,27,02,48,10.80
2012,05,27,02,49,10.80
2012,05,27,02,50,10.80
2012,05,27,02,51,10.80
2012,05,27,02,52,10.80
2012,05,27,02,53,10.80
2012,05,27,02,54,10.80
2012,05,27,02,55,10.80
2012,05,27,02,56,10.80
2012,05,27,02,57,10.80
2012,05,27,02,58,10.80
2012,05,27,02,59,10.80
2012,05,27,03,00,10.80
2012,05,27,03,01,10.80
2012,05,27,03,02,10.80
2012,05,27,03,03,10.80
2012,05,27,03,04,10.80
2012,05,27,03,05,10.80
2012,05,27,03,06,10.80
2012,05,27,03,07,10.80
2012,05,27,03,08,10.80
2012,05,27,03,09,10.80
2012,05,27,03,10,10.70
2012,05,27,03,11,10.70
2012,05,27,03,12,10.70
2012,05,27,03,13,10.70
2012,05,27,03,14,10.70
2012,05,27,03,15,10.70
2012,05,27,03,16,10.70
2012,05,27,03,17,10.70
2012,05,27,03,18,10.70
2012,05,27,03,19,10.70
2012,05,27,03,20,10.70
2012,05,27,03,21,10.70
2012,05,27,03,22,10.70
2012,05,27,03,23,10.70
2012,05,27,03,24,10.60
2012,05,27,03,25,10.60
2012,05,27,03,26,10.60
2012,05,27,03,27,10.60
2012,05,27,03,28,10.60
2012,05,27,03,29,10.60
2012,05,27,03,30,10.60
2012,05,27,03,31,10.60
2012,05,27,03,32,10.60
2012,05,27,03,33,10.60
2012,05,27,03,34,10.60
2012,05,27,03,35,10.60
2012,05,27,03,36,10.60
2012,05,27,03,37,10.60
2012,05,27,03,38,10.60
2012,05,27,03,39,10.60
2012,05,27,03,40,10.60
2012,05,27,03,41,10.60
2012,05,27,03,42,10.60
2012,05,27,03,43,10.60
2012,05,27,03,44,10.60
2012,05,27,03,45,10.60
2012,05,27,03,46,10.60
2012,05,27,03,47,10.60
2012,05,27,03,48,10.50
2012,05,27,03,49,10.40
2012,05,27,03,50,10.40
2012,05,27,03,51,10.40
2012,05,27,03,52,10.30
2012,05,27,03,53,10.30
2012,05,27,03,54,10.30
2012,05,27,03,56,10.30
2012,05,27,03,58,10.30
2012,05,27,03,59,10.30
2012,05,27,04,00,10.30
2012,05,27,04,01,10.30
2012,05,27,04,03,10.30
2012,05,27,04,04,10.30
2012,05,27,04,05,10.30
2012,05,27,04,06,10.30
2012,05,27,04,07,10.30
2012,05,27,04,08,10.30
2012,05,27,04,09,10.30
2012,05,27,04,10,10.30
2012,05,27,04,11,10.30
2012,05,27,04,12,10.40
2012,05,27,04,13,10.40
2012,05,27,04,14,10.40
2012,05,27,04,15,10.40
2012,05,27,04,16,10.40
2012,05,27,04,17,10.40
2012,05,27,04,18,10.40
2012,05,27,04,19,10.40
2012,05,27,04,20,10.30
2012,05,27,04,21,10.30
2012,05,27,04,22,10.30
2012,05,27,04,23,10.30
2012,05,27,04,24,10.20
2012,05,27,04,25,10.20
2012,05,27,04,26,10.20
2012,05,27,04,27,10.10
2012,05,27,04,28,10.10
2012,05,27,04,29,10.10
2012,05,27,04,30,10.10
2012,05,27,04,31,10.10
2012,05,27,04,32,10.10
2012,05,27,04,33,10.10
2012,05,27,04,34,10.10
2012,05,27,04,35,10.10
2012,05,27,04,36,10.10
2012,05,27,04,37,10.10
2012,05,27,04,38,10.10
2012,05,27,04,39,10.10
2012,05,27,04,40,10.10
2012,05,27,04,41,10.20
2012,05,27,04,42,10.20
2012,05,27,04,43,10.20
2012,05,27,04,44,10.20
2012,05,27,04,45,10.20
2012,05,27,04,46,10.20
2012,05,27,04,47,10.20
2012,05,27,04,48,10.20
2012,05,27,04,49,10.20
2012,05,27,04,50,10.20
2012,05,27,04,51,10.20
2012,05,27,04,52,10.20
2012,05,27,04,53,10.20
2012,05,27,04,54,10.30
2012,05,27,04,55,10.30
2012,05,27,04,56,10.30
2012,05,27,04,57,10.30
2012,05,27,04,58,10.30
2012,05,27,04,59,10.30
2012,05,27,05,00,10.30
2012,05,27,05,04,10.30
2012,05,27,05,05,10.30
2012,05,27,05,06,10.30
2012,05,27,05,07,10.30
2012,05,27,05,08,10.30
2012,05,27,05,09,10.30
2012,05,27,05,10,10.30
2012,05,27,05,11,10.30
2012,05,27,05,12,10.30
2012,05,27,05,13,10.30
2012,05,27,05,14,10.30
2012,05,27,05,15,10.30
2012,05,27,05,16,10.30
2012,05,27,05,17,10.30
2012,05,27,05,18,10.30
2012,05,27,05,19,10.30
2012,05,27,05,20,10.30
2012,05,27,05,21,10.30
2012,05,27,05,22,10.30
2012,05,27,05,23,10.30
2012,05,27,05,24,10.30
2012,05,27,05,25,10.30
2012,05,27,05,26,10.30
2012,05,27,05,27,10.30
2012,05,27,05,28,10.30
2012,05,27,05,29,10.30
2012,05,27,05,30,10.20
2012,05,27,05,31,10.20
2012,05,27,05,32,10.20
2012,05,27,05,33,10.20
2012,05,27,05,34,10.20
2012,05,27,05,35,10.20
2012,05,27,05,36,10.20
2012,05,27,05,37,10.20
2012,05,27,05,38,10.20
2012,05,27,05,39,10.20
2012,05,27,05,40,10.20
2012,05,27,05,41,10.20
2012,05,27,05,42,10.20
2012,05,27,05,43,10.20
2012,05,27,05,44,10.20
2012,05,27,05,45,10.20
2012,05,27,05,46,10.10
2012,05,27,05,47,10.10
2012,05,27,05,48,10.10
2012,05,27,05,49,10.10
2012,05,27,05,50,10.10
2012,05,27,05,51,10.10
2012,05,27,05,52,10.10
2012,05,27,05,53,10.10
2012,05,27,05,54,10.20
2012,05,27,05,55,10.20
2012,05,27,05,56,10.20
2012,05,27,05,57,10.20
2012,05,27,05,58,10.20
2012,05,27,05,59,10.20
2012,05,27,06,00,10.20
2012,05,27,06,01,10.20
2012,05,27,06,02,10.20
2012,05,27,06,05,10.30
2012,05,27,06,06,10.30
2012,05,27,06,07,10.30
2012,05,27,06,08,10.30
2012,05,27,06,09,10.40
2012,05,27,06,10,10.40
2012,05,27,06,11,10.40
2012,05,27,06,12,10.40
2012,05,27,06,13,10.40
2012,05,27,06,14,10.40
2012,05,27,06,15,10.40
2012,05,27,06,16,10.40
2012,05,27,06,17,10.40
2012,05,27,06,18,10.40
2012,05,27,06,19,10.40
2012,05,27,06,20,10.40
2012,05,27,06,21,10.40
2012,05,27,06,22,10.40
2012,05,27,06,23,10.40
2012,05,27,06,24,10.40
2012,05,27,06,25,10.40
2012,05,27,06,26,10.40
2012,05,27,06,27,10.40
2012,05,27,06,28,10.40
2012,05,27,06,30,10.40
2012,05,27,06,31,10.40
2012,05,27,06,32,10.40
2012,05,27,06,33,10.40
2012,05,27,06,34,10.40
2012,05,27,06,35,10.40
2012,05,27,06,36,10.40
2012,05,27,06,37,10.40
2012,05,27,06,38,10.50
2012,05,27,06,39,10.50
2012,05,27,06,40,10.50
2012,05,27,06,41,10.50
2012,05,27,06,42,10.60
2012,05,27,06,43,10.60
2012,05,27,06,44,10.60
2012,05,27,06,45,10.60
2012,05,27,06,46,10.60
2012,05,27,06,47,10.60
2012,05,27,06,48,10.60
2012,05,27,06,49,10.60
2012,05,27,06,50,10.60
2012,05,27,06,51,10.60
2012,05,27,06,52,10.60
2012,05,27,06,53,10.60
2012,05,27,06,54,10.60
2012,05,27,06,55,10.60
2012,05,27,06,56,10.60
2012,05,27,06,57,10.60
2012,05,27,06,58,10.60
2012,05,27,06,59,10.60
2012,05,27,07,00,10.60
2012,05,27,07,01,10.60
2012,05,27,07,02,10.60
2012,05,27,07,04,10.60
2012,05,27,07,05,10.60
2012,05,27,07,06,10.60
2012,05,27,07,07,10.60
2012,05,27,07,08,10.60
2012,05,27,07,09,10.60
2012,05,27,07,10,10.60
2012,05,27,07,11,10.60
2012,05,27,07,12,10.60
2012,05,27,07,13,10.60
2012,05,27,07,14,10.60
2012,05,27,07,15,10.60
2012,05,27,07,16,10.60
2012,05,27,07,17,10.60
2012,05,27,07,18,10.60
2012,05,27,07,19,10.60
2012,05,27,07,20,10.60
2012,05,27,07,21,10.60
2012,05,27,07,22,10.60
2012,05,27,07,23,10.60
2012,05,27,07,24,10.60
2012,05,27,07,25,10.60
2012,05,27,07,26,10.60
2012,05,27,07,27,10.60
2012,05,27,07,28,10.60
2012,05,27,07,29,10.60
2012,05,27,07,30,10.60
2012,05,27,07,31,10.60
2012,05,27,07,32,10.60
2012,05,27,07,33,10.60
2012,05,27,07,34,10.60
2012,05,27,07,35,10.70
2012,05,27,07,36,10.70
2012,05,27,07,37,10.70
2012,05,27,07,38,10.70
2012,05,27,07,39,10.70
2012,05,27,07,40,10.70
2012,05,27,07,41,10.70
2012,05,27,07,42,10.70
2012,05,27,07,43,10.70
2012,05,27,07,44,10.70
2012,05,27,07,45,10.70
2012,05,27,07,46,10.70
2012,05,27,07,47,10.70
2012,05,27,07,48,10.70
2012,05,27,07,49,10.70
2012,05,27,07,50,10.80
2012,05,27,07,51,10.80
2012,05,27,07,52,10.80
2012,05,27,07,53,10.80
2012,05,27,07,54,10.80
2012,05,27,07,55,10.80
2012,05,27,07,56,10.80
2012,05,27,07,57,10.80
2012,05,27,07,58,10.80
2012,05,27,07,59,10.80
2012,05,27,08,00,10.80
2012,05,27,08,01,10.80
2012,05,27,08,02,10.80
2012,05,27,08,04,10.90
2012,05,27,08,05,10.90
2012,05,27,08,06,10.90
2012,05,27,08,07,10.90
2012,05,27,08,08,10.90
2012,05,27,08,09,10.90
2012,05,27,08,10,10.90
2012,05,27,08,11,10.90
2012,05,27,08,12,10.90
2012,05,27,08,13,10.90
2012,05,27,08,14,10.90
2012,05,27,08,15,10.90
2012,05,27,08,16,11.00
2012,05,27,08,17,11.00
2012,05,27,08,18,11.00
2012,05,27,08,19,11.10
2012,05,27,08,20,11.10
2012,05,27,08,21,11.10
2012,05,27,08,22,11.20
2012,05,27,08,23,11.20
2012,05,27,08,24,11.30
2012,05,27,08,25,11.30
2012,05,27,08,26,11.30
2012,05,27,08,27,11.40
2012,05,27,08,28,11.40
2012,05,27,08,29,11.40
2012,05,27,08,30,11.40
2012,05,27,08,31,11.40
2012,05,27,08,32,11.40
2012,05,27,08,33,11.40
2012,05,27,08,34,11.40
2012,05,27,08,35,11.40
2012,05,27,08,36,11.40
2012,05,27,08,37,11.40
2012,05,27,08,38,11.40
2012,05,27,08,39,11.40
2012,05,27,08,40,11.40
2012,05,27,08,41,11.40
2012,05,27,08,42,11.40
2012,05,27,08,43,11.40
2012,05,27,08,44,11.40
2012,05,27,08,45,11.40
2012,05,27,08,46,11.40
2012,05,27,08,47,11.40
2012,05,27,08,48,11.40
2012,05,27,08,49,11.40
2012,05,27,08,50,11.50
2012,05,27,08,51,11.50
2012,05,27,08,52,11.60
2012,05,27,08,53,11.60
2012,05,27,08,54,11.60
2012,05,27,08,55,11.60
2012,05,27,08,56,11.60
2012,05,27,08,57,11.60
2012,05,27,08,58,11.60
2012,05,27,08,59,11.60
2012,05,27,09,00,11.60
2012,05,27,09,01,11.60
2012,05,27,09,02,11.60
2012,05,27,09,04,11.70
2012,05,27,09,05,11.70
2012,05,27,09,07,11.70
2012,05,27,09,08,11.80
2012,05,27,09,09,11.80
2012,05,27,09,10,11.90
2012,05,27,09,11,11.90
2012,05,27,09,13,11.90
2012,05,27,09,15,12.00
2012,05,27,09,16,12.00
2012,05,27,09,18,12.00
2012,05,27,09,19,12.00
2012,05,27,09,21,12.00
2012,05,27,09,22,12.10
2012,05,27,09,23,12.10
2012,05,27,09,24,12.10
2012,05,27,09,26,12.10
2012,05,27,09,27,12.10
2012,05,27,09,28,12.20
2012,05,27,09,30,12.20
2012,05,27,09,32,12.20
2012,05,27,09,34,12.20
2012,05,27,09,35,12.20
2012,05,27,09,37,12.30
2012,05,27,09,38,12.30
2012,05,27,09,39,12.30
2012,05,27,09,40,12.30
2012,05,27,09,41,12.40
2012,05,27,09,42,12.40
2012,05,27,09,44,12.60
2012,05,27,09,45,12.60
2012,05,27,09,46,12.60
2012,05,27,09,47,12.70
2012,05,27,09,48,12.80
2012,05,27,09,49,12.80
2012,05,27,09,50,12.80
2012,05,27,09,51,12.80
2012,05,27,09,52,12.90
2012,05,27,09,53,12.90
2012,05,27,09,54,13.00
2012,05,27,09,55,13.10
2012,05,27,09,56,13.20
2012,05,27,09,57,13.20
2012,05,27,09,58,13.20
2012,05,27,09,59,13.20
2012,05,27,10,00,13.20
2012,05,27,10,01,13.20
2012,05,27,10,03,13.20
2012,05,27,10,04,13.20
2012,05,27,10,05,13.20
2012,05,27,10,06,13.20
2012,05,27,10,07,13.20
2012,05,27,10,08,13.20
2012,05,27,10,09,13.20
2012,05,27,10,10,13.20
2012,05,27,10,11,13.20
2012,05,27,10,12,13.20
2012,05,27,10,13,13.30
2012,05,27,10,14,13.30
2012,05,27,10,15,13.30
2012,05,27,10,16,13.30
2012,05,27,10,17,13.30
2012,05,27,10,18,13.30
2012,05,27,10,20,13.30
2012,05,27,10,21,13.40
2012,05,27,10,23,13.40
2012,05,27,10,24,13.50
2012,05,27,10,25,13.60
2012,05,27,10,26,13.70
2012,05,27,10,27,13.80
2012,05,27,10,29,13.90
2012,05,27,10,31,14.10
2012,05,27,10,32,14.10
2012,05,27,10,34,14.10
2012,05,27,10,35,14.00
2012,05,27,10,36,14.00
2012,05,27,10,38,14.00
2012,05,27,10,39,14.10
2012,05,27,10,40,14.00
2012,05,27,10,41,14.10
2012,05,27,10,43,14.10
2012,05,27,10,44,14.20
2012,05,27,10,45,14.20
2012,05,27,10,46,14.20
2012,05,27,10,47,14.10
2012,05,27,10,48,14.10
2012,05,27,10,50,14.10
2012,05,27,10,51,14.10
2012,05,27,10,53,14.00
2012,05,27,10,55,13.90
2012,05,27,10,56,13.90
2012,05,27,10,57,13.90
2012,05,27,10,59,13.80
2012,05,27,11,00,13.80
2012,05,27,11,01,13.90
2012,05,27,11,02,13.90
2012,05,27,11,03,13.90
2012,05,27,11,05,14.10
2012,05,27,11,06,14.20
2012,05,27,11,07,14.30
2012,05,27,11,08,14.30
2012,05,27,11,10,14.40
2012,05,27,11,11,14.40
2012,05,27,11,12,14.40
2012,05,27,11,13,14.40
2012,05,27,11,14,14.40
2012,05,27,11,15,14.40
2012,05,27,11,17,14.40
2012,05,27,11,19,14.30
2012,05,27,11,20,14.30
2012,05,27,11,21,14.30
2012,05,27,11,22,14.30
2012,05,27,11,24,14.30
2012,05,27,11,25,14.30
2012,05,27,11,27,14.30
2012,05,27,11,29,14.30
2012,05,27,11,31,14.30
2012,05,27,11,32,14.40
2012,05,27,11,34,14.40
2012,05,27,11,35,14.30
2012,05,27,11,36,14.30
2012,05,27,11,37,14.30
2012,05,27,11,38,14.30
2012,05,27,11,40,14.30
2012,05,27,11,42,14.30
2012,05,27,11,43,14.30
2012,05,27,11,44,14.30
2012,05,27,11,46,14.20
2012,05,27,11,48,14.20
2012,05,27,11,49,14.20
2012,05,27,11,50,14.20
2012,05,27,11,51,14.20
2012,05,27,11,52,14.20
2012,05,27,11,53,14.20
2012,05,27,11,54,14.20
2012,05,27,11,56,14.10
2012,05,27,11,57,14.10
2012,05,27,11,58,14.10
2012,05,27,12,00,14.20
2012,05,27,12,01,14.20
2012,05,27,12,02,14.20
2012,05,27,12,04,14.20
2012,05,27,12,05,14.20
2012,05,27,12,07,14.10
2012,05,27,12,09,14.10
2012,05,27,12,10,14.20
2012,05,27,12,12,14.30
2012,05,27,12,14,14.40
2012,05,27,12,15,14.40
2012,05,27,12,16,14.40
2012,05,27,12,18,14.40
2012,05,27,12,19,14.50
2012,05,27,12,21,14.60
2012,05,27,12,22,14.60
2012,05,27,12,23,14.60
2012,05,27,12,24,14.60
2012,05,27,12,25,14.70
2012,05,27,12,26,14.70
2012,05,27,12,27,14.60
2012,05,27,12,28,14.60
2012,05,27,12,29,14.60
2012,05,27,12,30,14.60
2012,05,27,12,32,14.60
2012,05,27,12,34,14.50
2012,05,27,12,35,14.60
2012,05,27,12,37,14.60
2012,05,27,12,38,14.40
2012,05,27,12,39,14.40
2012,05,27,12,40,14.30
2012,05,27,12,41,14.20
2012,05,27,12,42,14.20
2012,05,27,12,43,14.10
2012,05,27,12,44,14.10
2012,05,27,12,45,14.00
2012,05,27,12,47,13.90
2012,05,27,12,48,13.80
2012,05,27,12,49,13.80
2012,05,27,12,50,13.80
2012,05,27,12,52,13.70
2012,05,27,12,53,13.70
2012,05,27,12,54,13.70
2012,05,27,12,56,13.70
2012,05,27,12,58,13.60
2012,05,27,12,59,13.60
2012,05,27,13,00,13.50
2012,05,27,13,01,13.40
2012,05,27,13,02,13.40
2012,05,27,13,04,13.40
2012,05,27,13,05,13.40
2012,05,27,13,06,13.40
2012,05,27,13,07,13.30
2012,05,27,13,09,13.30
2012,05,27,13,10,13.30
2012,05,27,13,11,13.20
2012,05,27,13,13,13.10
2012,05,27,13,14,13.10
2012,05,27,13,15,13.10
2012,05,27,13,16,13.10
2012,05,27,13,17,13.00
2012,05,27,13,18,13.00
2012,05,27,13,20,12.90
2012,05,27,13,21,12.90
2012,05,27,13,23,12.80
2012,05,27,13,24,12.80
2012,05,27,13,25,12.80
2012,05,27,13,27,12.70
2012,05,27,13,29,12.70
2012,05,27,13,31,12.70
2012,05,27,13,32,12.70
2012,05,27,13,34,12.60
2012,05,27,13,35,12.60
2012,05,27,13,36,12.60
2012,05,27,13,37,12.60
2012,05,27,13,39,12.60
2012,05,27,13,40,12.60
2012,05,27,13,41,12.60
2012,05,27,13,42,12.60
2012,05,27,13,44,12.60
2012,05,27,13,45,12.60
2012,05,27,13,46,12.60
2012,05,27,13,48,12.60
2012,05,27,13,49,12.60
2012,05,27,13,51,12.60
2012,05,27,13,52,12.60
2012,05,27,13,53,12.60
2012,05,27,13,54,12.60
2012,05,27,13,55,12.60
2012,05,27,13,56,12.60
2012,05,27,13,58,12.60
2012,05,27,13,59,12.60
2012,05,27,14,00,12.60
2012,05,27,14,01,12.60
2012,05,27,14,02,12.60
2012,05,27,14,04,12.60
2012,05,27,14,05,12.60
2012,05,27,14,07,12.60
2012,05,27,14,08,12.60
2012,05,27,14,10,12.70
2012,05,27,14,11,12.70
2012,05,27,14,12,12.70
2012,05,27,14,14,12.80
2012,05,27,14,15,12.80
2012,05,27,14,16,12.80
2012,05,27,14,17,12.80
2012,05,27,14,19,12.80
2012,05,27,14,21,12.90
2012,05,27,14,23,12.90
2012,05,27,14,24,12.90
2012,05,27,14,25,12.90
2012,05,27,14,27,13.00
2012,05,27,14,29,13.00
2012,05,27,14,30,13.10
2012,05,27,14,32,13.10
2012,05,27,14,33,13.10
2012,05,27,14,34,13.10
2012,05,27,14,35,13.10
2012,05,27,14,36,13.10
2012,05,27,14,37,13.20
2012,05,27,14,39,13.20
2012,05,27,14,40,13.20
2012,05,27,14,41,13.20
2012,05,27,14,42,13.20
2012,05,27,14,43,13.20
2012,05,27,14,44,13.10
2012,05,27,14,46,13.10
2012,05,27,14,48,13.00
2012,05,27,14,50,12.90
2012,05,27,14,51,12.90
2012,05,27,14,53,12.80
2012,05,27,14,55,12.80
2012,05,27,14,57,12.80
2012,05,27,14,58,12.80
2012,05,27,14,59,12.80
2012,05,27,15,00,12.70
2012,05,27,15,01,12.70
2012,05,27,15,02,12.70
2012,05,27,15,04,12.70
2012,05,27,15,05,12.70
2012,05,27,15,07,12.70
2012,05,27,15,08,12.70
2012,05,27,15,09,12.70
2012,05,27,15,11,12.70
2012,05,27,15,12,12.70
2012,05,27,15,14,12.70
2012,05,27,15,15,12.70
2012,05,27,15,17,12.70
2012,05,27,15,18,12.70
2012,05,27,15,19,12.70
2012,05,27,15,21,12.80
2012,05,27,15,22,12.80
2012,05,27,15,24,12.80
2012,05,27,15,25,12.80
2012,05,27,15,26,12.90
2012,05,27,15,28,12.90
2012,05,27,15,30,13.00
2012,05,27,15,31,13.00
2012,05,27,15,32,13.00
2012,05,27,15,33,12.90
2012,05,27,15,35,13.00
2012,05,27,15,36,13.00
2012,05,27,15,37,12.90
2012,05,27,15,38,12.90
2012,05,27,15,39,12.90
2012,05,27,15,40,12.90
2012,05,27,15,42,12.90
2012,05,27,15,43,12.90
2012,05,27,15,44,12.90
2012,05,27,15,45,12.90
2012,05,27,15,47,13.00
2012,05,27,15,49,13.10
2012,05,27,15,50,13.10
2012,05,27,15,51,13.20
2012,05,27,15,52,13.20
2012,05,27,15,54,13.20
2012,05,27,15,55,13.20
2012,05,27,15,57,13.30
2012,05,27,15,59,13.30
2012,05,27,16,00,13.30
2012,05,27,16,01,13.30
2012,05,27,16,02,13.40
2012,05,27,16,04,13.40
2012,05,27,16,05,13.40
2012,05,27,16,07,13.40
2012,05,27,16,08,13.50
2012,05,27,16,09,13.50
2012,05,27,16,11,13.60
2012,05,27,16,13,13.60
2012,05,27,16,15,13.60
2012,05,27,16,16,13.60
2012,05,27,16,17,13.60
2012,05,27,16,18,13.60
2012,05,27,16,19,13.60
2012,05,27,16,20,13.60
2012,05,27,16,22,13.40
2012,05,27,16,23,13.40
2012,05,27,16,25,13.40
2012,05,27,16,26,13.40
2012,05,27,16,27,13.40
2012,05,27,16,29,13.30
2012,05,27,16,30,13.40
2012,05,27,16,32,13.40
2012,05,27,16,33,13.40
2012,05,27,16,34,13.40
2012,05,27,16,35,13.50
2012,05,27,16,37,13.50
2012,05,27,16,38,13.60
2012,05,27,16,39,13.60
2012,05,27,16,40,13.60
2012,05,27,16,41,13.60
2012,05,27,16,43,13.70
2012,05,27,16,45,13.70
2012,05,27,16,46,13.70
2012,05,27,16,47,13.70
2012,05,27,16,48,13.70
2012,05,27,16,49,13.70
2012,05,27,16,51,13.70
2012,05,27,16,52,13.70
2012,05,27,16,54,13.70
2012,05,27,16,55,13.70
2012,05,27,16,57,13.70
2012,05,27,16,59,13.70
2012,05,27,17,00,13.70
2012,05,27,17,01,13.70
2012,05,27,17,02,13.70
2012,05,27,17,04,13.70
2012,05,27,17,06,13.70
2012,05,27,17,08,13.70
2012,05,27,17,09,13.70
2012,05,27,17,11,13.70
2012,05,27,17,13,13.70
2012,05,27,17,14,13.70
2012,05,27,17,15,13.70
2012,05,27,17,16,13.70
2012,05,27,17,18,13.70
2012,05,27,17,19,13.70
2012,05,27,17,20,13.70
2012,05,27,17,22,13.70
2012,05,27,17,23,13.70
2012,05,27,17,25,13.70
2012,05,27,17,26,13.70
2012,05,27,17,28,13.70
2012,05,27,17,29,13.70
2012,05,27,17,30,13.70
2012,05,27,17,31,13.70
2012,05,27,17,32,13.70
2012,05,27,17,34,13.70
2012,05,27,17,35,13.60
2012,05,27,17,36,13.60
2012,05,27,17,38,13.70
2012,05,27,17,39,13.70
2012,05,27,17,40,13.70
2012,05,27,17,42,13.70
2012,05,27,17,43,13.70
2012,05,27,17,45,13.70
2012,05,27,17,47,13.70
2012,05,27,17,49,13.70
2012,05,27,17,50,13.70
2012,05,27,17,51,13.80
2012,05,27,17,52,13.80
2012,05,27,17,53,13.80
2012,05,27,17,54,13.80
2012,05,27,17,55,13.80
2012,05,27,17,57,13.70
2012,05,27,17,58,13.70
2012,05,27,17,59,13.70
2012,05,27,18,00,13.70
2012,05,27,18,01,13.70
2012,05,27,18,02,13.70
2012,05,27,18,03,13.70
2012,05,27,18,04,13.70
2012,05,27,18,06,13.80
2012,05,27,18,07,13.80
2012,05,27,18,08,13.80
2012,05,27,18,09,13.70
2012,05,27,18,10,13.80
2012,05,27,18,11,13.80
2012,05,27,18,12,13.80
2012,05,27,18,13,13.80
2012,05,27,18,14,13.80
2012,05,27,18,15,13.80
2012,05,27,18,16,13.80
2012,05,27,18,17,13.80
2012,05,27,18,18,13.80
2012,05,27,18,19,13.80
2012,05,27,18,20,13.80
2012,05,27,18,21,13.80
2012,05,27,18,22,13.80
2012,05,27,18,23,13.80
2012,05,27,18,24,13.70
2012,05,27,18,25,13.70
2012,05,27,18,26,13.70
2012,05,27,18,27,13.70
2012,05,27,18,28,13.70
2012,05,27,18,29,13.70
2012,05,27,18,30,13.70
2012,05,27,18,31,13.70
2012,05,27,18,32,13.70
2012,05,27,18,34,13.60
2012,05,27,18,35,13.60
2012,05,27,18,36,13.60
2012,05,27,18,37,13.70
2012,05,27,18,39,13.70
2012,05,27,18,40,13.70
2012,05,27,18,42,13.70
2012,05,27,18,43,13.70
2012,05,27,18,44,13.70
2012,05,27,18,45,13.70
2012,05,27,18,47,13.70
2012,05,27,18,48,13.70
2012,05,27,18,49,13.70
2012,05,27,18,50,13.70
2012,05,27,18,51,13.70
2012,05,27,18,52,13.60
2012,05,27,18,53,13.60
2012,05,27,18,54,13.60
2012,05,27,18,55,13.60
2012,05,27,18,56,13.60
2012,05,27,18,57,13.60
2012,05,27,18,58,13.60
2012,05,27,18,59,13.60
2012,05,27,19,00,13.60
2012,05,27,19,01,13.60
2012,05,27,19,02,13.60
2012,05,27,19,04,13.60
2012,05,27,19,05,13.60
2012,05,27,19,06,13.60
2012,05,27,19,07,13.60
2012,05,27,19,08,13.60
2012,05,27,19,09,13.60
2012,05,27,19,11,13.70
2012,05,27,19,12,13.70
2012,05,27,19,13,13.70
2012,05,27,19,14,13.70
2012,05,27,19,15,13.70
2012,05,27,19,17,13.70
2012,05,27,19,19,13.70
2012,05,27,19,21,13.70
2012,05,27,19,22,13.70
2012,05,27,19,24,13.70
2012,05,27,19,25,13.70
2012,05,27,19,26,13.70
2012,05,27,19,27,13.70
2012,05,27,19,28,13.70
2012,05,27,19,29,13.70
2012,05,27,19,31,13.70
2012,05,27,19,32,13.70
2012,05,27,19,34,13.70
2012,05,27,19,35,13.70
2012,05,27,19,36,13.70
2012,05,27,19,38,13.70
2012,05,27,19,39,13.70
2012,05,27,19,40,13.70
2012,05,27,19,41,13.70
2012,05,27,19,42,13.70
2012,05,27,19,44,13.70
2012,05,27,19,45,13.70
2012,05,27,19,47,13.70
2012,05,27,19,48,13.70
2012,05,27,19,49,13.70
2012,05,27,19,50,13.70
2012,05,27,19,51,13.70
2012,05,27,19,52,13.70
2012,05,27,19,54,13.70
2012,05,27,19,55,13.70
2012,05,27,19,57,13.70
2012,05,27,19,59,13.70
2012,05,27,20,00,13.70
2012,05,27,20,01,13.70
2012,05,27,20,02,13.70